Weather in San Francisco

United States     37°45′33″N   122°26′49″W
temp.,
°C
wind,
m/s
gust,
m/s
humid.,
%
clouds,
%
prec.,
mm/h
press.,
hPa
HPBL,
m
28 june, tue
tue2823:00+15wsw36830 0.0 1018140
02:00+13wsw35880 0.0 1018143
05:00+13wsw35890 0.0 1018139
08:00+13wsw358816 0.0 1018206
11:00+15wsw457614 0.0 1018209
14:00+17wsw69691 0.0 1018238
17:00+17w711691 0.0 1016233
20:00+14w59812 0.0 1016242
29 june, wed
wed2923:00+13w599030 0.0 1017280
02:00+12wsw589145 0.0 1016304
05:00+12wsw568962 0.0 1016338
08:00+13sw458792 0.0 1017376
11:00+14sw557836 0.0 1017364
14:00+15wsw677630 0.0 1017375
17:00+14wsw798242 0.0 1016379
20:00+13wsw688638 0.0 1016395
30 june, thu
thu3023:00+13sw678656 0.0 1017395
02:00+13sw678879 0.0 1016401
05:00+12sw568799 0.0 1015436
08:00+12sw568599 0.1 1017475
11:00+13wsw678244 0.1 1018450
14:00+14wsw798047 0.0 1018437
17:00+14w8118233 0.0 1017433
20:00+13w7108666 0.0 1017456
1 july, fri
fri123:00+13w7108773 0.0 1016453
02:00+13w698787 0.1 1016495
05:00+13w5785100 0.2 1015473
08:00+13wsw468392 0.1 1016404
11:00+14wsw568248 0.1 1017405
14:00+14w798024 0.0 1017423
17:00+14w9128235 0.0 1016435
20:00+13w8138863 0.0 1015453
2 july, sat
sat223:00+13w8129071 0.0 1015439
02:00+13wnw81188100 0.1 1014482
05:00+13w798794 0.1 1014476
08:00+13w6885100 0.1 1015508
11:00+14w798145 0.1 1015487
14:00+15w911750 0.0 1015477
17:00+15w913750 0.0 1014500
20:00+14w914810 0.0 1013491